timestamp,surface_pressure_avg,surface_temp_avg,battery_voltage,lat,long
2020-02-11 00:09:01+00:00,346.9213,0.36,12.65,47.84626,-54.09684
2020-02-11 00:19:01+00:00,352.3796,0.35,12.57,47.84626,-54.09684
2020-02-11 00:29:01+00:00,357.9312,0.3,12.57,47.84626,-54.09684
2020-02-11 00:39:01+00:00,359.9513,0.3,12.57,47.84626,-54.09684
2020-02-11 00:49:01+00:00,361.7529,0.3,12.57,47.84626,-54.09684
2020-02-11 00:59:01+00:00,359.418,0.3,12.57,47.84626,-54.09684
2020-02-11 01:09:01+00:00,354.8846,0.3,12.57,47.84626,-54.09684
2020-02-11 01:19:01+00:00,348.5963,0.39,12.57,47.84626,-54.09684
2020-02-11 01:29:01+00:00,345.5229,0.4,12.57,47.84626,-54.09684
2020-02-11 01:39:01+00:00,345.798,0.42,12.57,47.84626,-54.09684
2020-02-11 01:49:01+00:00,346.0513,0.49,12.57,47.84626,-54.09684
2020-02-11 01:59:01+00:00,342.2062,0.5,12.57,47.84626,-54.09684
2020-02-11 02:09:01+00:00,333.9996,0.5,12.57,47.84626,-54.09684
2020-02-11 02:19:01+00:00,326.548,0.5,12.57,47.84626,-54.09684
2020-02-11 02:29:01+00:00,327.8397,0.47,12.57,47.84626,-54.09684
2020-02-11 02:39:01+00:00,323.1863,0.42,12.57,47.84626,-54.09684
2020-02-11 02:49:01+00:00,316.2096,0.4,12.57,47.84626,-54.09684
2020-02-11 02:59:01+00:00,316.5513,0.4,12.57,47.84626,-54.09684
2020-02-11 03:09:01+00:00,311.2614,0.39,12.57,47.84626,-54.09684
2020-02-11 03:19:01+00:00,302.0147,0.31,12.57,47.84626,-54.09684
2020-02-11 03:29:01+00:00,290.1664,0.32,12.57,47.84626,-54.09684
2020-02-11 03:39:01+00:00,280.3414,0.33,12.57,47.84626,-54.09684
2020-02-11 03:49:01+00:00,273.7631,0.3,12.57,47.84626,-54.09684
2020-02-11 03:59:01+00:00,267.2397,0.3,12.57,47.84626,-54.09684
2020-02-11 04:09:01+00:00,259.4231,0.3,12.57,47.84626,-54.09684
2020-02-11 04:19:01+00:00,247.4564,0.29,12.57,47.84626,-54.09684
2020-02-11 04:29:01+00:00,239.2765,0.27,12.57,47.84626,-54.09684
2020-02-11 04:39:01+00:00,235.6681,0.25,12.57,47.84626,-54.09684
2020-02-11 04:49:01+00:00,226.2648,0.2,12.57,47.84626,-54.09684
2020-02-11 04:59:01+00:00,218.4814,0.2,12.57,47.84626,-54.09684
2020-02-11 05:09:01+00:00,219.0297,0.2,12.57,47.84626,-54.09684
2020-02-11 05:19:01+00:00,216.9197,0.2,12.57,47.84626,-54.09684
2020-02-11 05:29:01+00:00,203.9965,0.2,12.57,47.84626,-54.09684
2020-02-11 05:39:01+00:00,189.1515,0.1,12.57,47.84626,-54.09684
2020-02-11 05:49:01+00:00,184.3432,0.0,12.57,47.84626,-54.09684
2020-02-11 05:59:01+00:00,184.2415,0.0,12.57,47.84626,-54.09684
2020-02-11 06:09:01+00:00,180.8514,0.0,12.57,47.84626,-54.09684
2020-02-11 06:19:01+00:00,176.5965,0.0,12.49,47.84626,-54.09684
2020-02-11 06:29:01+00:00,172.7948,-0.1,12.49,47.84626,-54.09684
2020-02-11 06:39:01+00:00,166.2165,-0.1,12.49,47.84626,-54.09684
2020-02-11 06:49:01+00:00,165.5115,-0.18,12.49,47.84626,-54.09684
2020-02-11 06:59:01+00:00,168.7798,-0.2,12.49,47.84626,-54.09684
2020-02-11 07:09:01+00:00,167.1181,-0.2,12.49,47.84626,-54.09684
2020-02-11 07:19:01+00:00,169.4665,-0.2,12.49,47.84626,-54.09684
2020-02-11 07:29:01+00:00,176.4015,-0.2,12.49,47.84626,-54.09684
2020-02-11 07:39:01+00:00,173.4381,-0.2,12.49,47.84626,-54.09684
2020-02-11 07:49:01+00:00,174.1415,-0.2,12.49,47.84626,-54.09684
2020-02-11 07:59:01+00:00,187.0948,-0.2,12.49,47.84626,-54.09684
2020-02-11 08:09:01+00:00,193.9965,-0.13,12.49,47.84626,-54.09684
2020-02-11 08:19:01+00:00,192.7565,-0.13,12.49,47.84626,-54.09684
2020-02-11 08:29:01+00:00,205.6048,-0.14,12.49,47.84626,-54.09684
2020-02-11 08:39:01+00:00,221.6248,-0.13,12.49,47.84626,-54.09684
2020-02-11 08:49:01+00:00,214.0015,-0.15,12.49,47.84626,-54.09684
2020-02-11 08:59:01+00:00,215.2897,-0.2,12.49,47.84626,-54.09684
2020-02-11 09:09:01+00:00,223.7197,-0.2,12.49,47.84626,-54.09684
2020-02-11 09:19:01+00:00,221.5131,-0.2,12.49,47.84626,-54.09684
2020-02-11 09:29:01+00:00,225.4681,-0.2,12.49,47.84626,-54.09684
2020-02-11 09:39:01+00:00,238.4398,-0.2,12.49,47.84626,-54.09684
2020-02-11 09:49:01+00:00,246.9064,-0.2,12.49,47.84626,-54.09684
2020-02-11 09:59:01+00:00,247.1964,-0.2,12.49,47.84626,-54.09684
2020-02-11 10:09:01+00:00,254.3464,-0.2,12.49,47.84626,-54.09684
2020-02-11 10:19:01+00:00,264.4464,-0.2,12.49,47.84626,-54.09684
2020-02-11 10:29:01+00:00,267.0347,-0.2,12.49,47.84626,-54.09684
2020-02-11 10:39:01+00:00,270.8714,-0.2,12.49,47.84626,-54.09684
2020-02-11 10:49:01+00:00,278.0247,-0.2,12.49,47.84626,-54.09684
2020-02-11 10:59:01+00:00,286.6913,-0.2,12.49,47.84626,-54.09684
2020-02-11 11:09:01+00:00,293.3464,-0.2,12.49,47.84626,-54.09684
2020-02-11 11:19:01+00:00,301.9348,-0.18,12.49,47.84626,-54.09684
2020-02-11 11:29:01+00:00,309.188,-0.17,12.49,47.84626,-54.09684
2020-02-11 11:39:01+00:00,313.303,-0.14,12.49,47.84626,-54.09684
2020-02-11 11:49:01+00:00,317.0946,-0.1,12.49,47.84626,-54.09684
2020-02-11 11:59:01+00:00,324.5496,0.13,12.49,47.84626,-54.09684
2020-02-11 12:09:01+00:00,333.0613,0.2,12.49,47.84626,-54.09684
2020-02-11 12:19:01+00:00,334.0063,0.2,12.49,47.84626,-54.09684
2020-02-11 12:29:01+00:00,336.4263,0.2,12.49,47.84626,-54.09684
2020-02-11 12:39:01+00:00,342.5713,0.25,12.49,47.84626,-54.09684
2020-02-11 12:49:01+00:00,348.6429,0.3,12.49,47.84626,-54.09684
2020-02-11 12:59:01+00:00,355.86300000000006,0.33,12.49,47.84626,-54.09684
2020-02-11 13:09:01+00:00,361.718,0.3,12.49,47.84626,-54.09684
2020-02-11 13:19:01+00:00,369.6896,0.3,12.57,47.84626,-54.09684
2020-02-11 13:29:01+00:00,376.4778,0.25,12.57,47.84626,-54.09684
2020-02-11 13:39:01+00:00,374.9062,0.22,12.57,47.84626,-54.09684
2020-02-11 13:49:01+00:00,371.3129,0.2,12.57,47.84626,-54.09684
2020-02-11 13:59:01+00:00,376.0096,0.2,12.57,47.84626,-54.09684
2020-02-11 14:09:01+00:00,379.6746,0.2,12.57,47.84626,-54.09684
2020-02-11 14:19:01+00:00,373.5347,0.1,12.57,47.84626,-54.09684
2020-02-11 14:29:01+00:00,375.8962,0.15,12.57,47.84626,-54.09684
2020-02-11 14:39:01+00:00,374.11300000000006,0.1,12.57,47.84626,-54.09684
2020-02-11 14:49:01+00:00,367.9563,0.1,12.57,47.84626,-54.09684
2020-02-11 14:59:01+00:00,364.0046,0.12,12.57,47.84626,-54.09684
2020-02-11 15:09:01+00:00,359.0113,0.15,12.57,47.84626,-54.09684
2020-02-11 15:19:01+00:00,346.7613,0.17,12.73,47.84626,-54.09684
2020-02-11 15:29:01+00:00,328.0847,0.19,12.73,47.84626,-54.09684
2020-02-11 15:39:01+00:00,318.0063,0.2,12.73,47.84626,-54.09684
2020-02-11 15:49:01+00:00,303.7047,0.17,12.73,47.84626,-54.09684
2020-02-11 15:59:01+00:00,287.683,0.1,12.73,47.84626,-54.09684
2020-02-11 16:09:01+00:00,286.423,0.15,12.73,47.84626,-54.09684
2020-02-11 16:19:01+00:00,286.043,0.17,14.48,47.84626,-54.09684
2020-02-11 16:29:01+00:00,271.0514,0.19,14.48,47.84626,-54.09684
2020-02-11 16:39:01+00:00,254.4931,0.2,14.48,47.84626,-54.09684
2020-02-11 16:49:01+00:00,250.8531,0.2,14.48,47.84626,-54.09684
2020-02-11 16:59:01+00:00,245.3365,0.2,14.48,47.84626,-54.09684
2020-02-11 17:09:01+00:00,223.4214,0.2,14.48,47.84626,-54.09684
2020-02-11 17:19:01+00:00,210.9081,0.2,14.32,47.84626,-54.09684
2020-02-11 17:29:01+00:00,210.6648,0.22,14.32,47.84626,-54.09684
2020-02-11 17:39:01+00:00,199.5631,0.25,14.32,47.84626,-54.09684
2020-02-11 17:49:01+00:00,188.0314,0.24,14.32,47.84626,-54.09684
2020-02-11 17:59:01+00:00,185.7164,0.26,14.32,47.84626,-54.09684
2020-02-11 18:09:01+00:00,180.2465,0.28,14.32,47.84626,-54.09684
2020-02-11 18:19:01+00:00,170.3365,0.29,14.64,47.84626,-54.09684
2020-02-11 18:29:01+00:00,168.1099,0.29,14.64,47.84626,-54.09684
2020-02-11 18:39:01+00:00,171.0115,0.3,14.64,47.84626,-54.09684
2020-02-11 18:49:01+00:00,164.5865,0.3,14.64,47.84626,-54.09684
2020-02-11 18:59:01+00:00,159.2298,0.3,14.64,47.84626,-54.09684
2020-02-11 19:09:01+00:00,163.0631,0.34,14.64,47.84626,-54.09684
2020-02-11 19:19:01+00:00,162.4748,0.37,14.4,47.84626,-54.09684
2020-02-11 19:29:01+00:00,159.8665,0.39,14.4,47.84626,-54.09684
2020-02-11 19:39:01+00:00,170.2215,0.4,14.4,47.84626,-54.09684
2020-02-11 19:49:01+00:00,178.9848,0.4,14.4,47.84626,-54.09684
2020-02-11 19:59:01+00:00,170.9148,0.4,14.4,47.84626,-54.09684
2020-02-11 20:09:01+00:00,171.2081,0.4,14.4,47.84626,-54.09684
2020-02-11 20:19:01+00:00,183.5615,0.4,14.0,47.84626,-54.09684
2020-02-11 20:29:01+00:00,185.4398,0.4,14.0,47.84626,-54.09684
2020-02-11 20:39:01+00:00,179.7798,0.4,14.0,47.84626,-54.09684
2020-02-11 20:49:01+00:00,183.5898,0.4,14.0,47.84626,-54.09684
2020-02-11 20:59:01+00:00,196.2548,0.4,14.0,47.84626,-54.09684
2020-02-11 21:09:01+00:00,210.3581,0.4,14.0,47.84626,-54.09684
2020-02-11 21:19:01+00:00,214.5364,0.41,13.44,47.84626,-54.09684
2020-02-11 21:29:01+00:00,219.1714,0.44,13.44,47.84626,-54.09684
2020-02-11 21:39:01+00:00,232.0448,0.48,13.44,47.84626,-54.09684
2020-02-11 21:49:01+00:00,232.4631,0.5,13.44,47.84626,-54.09684
2020-02-11 21:59:01+00:00,225.2398,0.5,13.44,47.84626,-54.09684
2020-02-11 22:09:01+00:00,236.1114,0.55,13.44,47.84626,-54.09684
2020-02-11 22:19:01+00:00,252.5231,0.59,13.05,47.84626,-54.09684
2020-02-11 22:29:01+00:00,249.3764,0.6,13.05,47.84626,-54.09684
2020-02-11 22:39:01+00:00,251.6248,0.59,13.05,47.84626,-54.09684
2020-02-11 22:49:01+00:00,268.8564,0.57,13.05,47.84626,-54.09684
2020-02-11 22:59:01+00:00,281.2614,0.58,13.05,47.84626,-54.09684
2020-02-11 23:09:01+00:00,289.0013,0.59,13.05,47.84626,-54.09684
2020-02-11 23:19:01+00:00,295.4597,0.57,12.73,47.84626,-54.09684
2020-02-11 23:29:01+00:00,306.9446,0.56,12.73,47.84626,-54.09684
2020-02-11 23:39:01+00:00,309.2964,0.57,12.73,47.84626,-54.09684
2020-02-11 23:49:01+00:00,311.238,0.55,12.73,47.84626,-54.09684
2020-02-11 23:59:01+00:00,320.1563,0.54,12.73,47.84626,-54.09684
